Temp
-12 -11 -11 -12 -12 -12 -12 -12 -13 -13 -13 -13 -13 -13 -12 -12 -12 -12 -12 -12 -13 -13 -14 -15 -15 -14 -14 -15 -15 -14 -14 -14
-12 -12 -12 -12 -12 -13 -13 -13 -13 -13 -13 -13 -13 -13 -12 -12 -12 -12 -13 -13 -13 -14 -14 -15 -15 -15 -15 -15 -15 -14 -14 -14
-12 -12 -12 -13 -13 -13 -13 -13 -13 -13 -14 -14 -13 -13 -12 -12 -12 -13 -13 -13 -13 -13 -14 -14 -13 -14 -14 -14 -15 -14 -14 -14
-12 -12 -13 -12 -13 -13 -13 -13 -13 -14 -13 -13 -13 -13 -13 -13 -13 -13 -13 -14 -14 -14 -14 -14 -14 -14 -14 -14 -14 -14 -15 -14
-13 -13 -13 -13 -13 -13 -13 -13 -13 -13 -13 -13 -13 -14 -14 -14 -14 -14 -14 -14 -14 -14 -14 -14 -14 -14 -14 -14 -15 -15 -15 -15
-13 -13 -13 -13 -13 -14 -13 -13 -13 -13 -13 -13 -14 -14 -14 -14 -14 -14 -14 -14 -14 -14 -14 -14 -14 -14 -14 -14 -15 -15 -15 -15
-13 -13 -13 -13 -13 -13 -14 -14 -14 -14 -14 -14 -14 -14 -14 -14 -14 -14 -14 -14 -14 -14 -14 -15 -15 -15 -15 -15 -15 -16 -16 -16
-13 -13 -13 -13 -13 -14 -14 -14 -14 -14 -14 -14 -15 -15 -15 -14 -14 -14 -14 -14 -14 -14 -15 -15 -15 -15 -15 -16 -16 -16 -16 -16
-14 -14 -13 -13 -13 -13 -13 -14 -13 -14 -14 -14 -15 -15 -15 -15 -14 -15 -15 -15 -15 -15 -16 -16 -16 -16 -16 -16 -16 -16 -16 -16
-14 -14 -13 -14 -14 -14 -14 -14 -13 -14 -14 -14 -14 -14 -14 -14 -14 -14 -15 -15 -15 -16 -16 -16 -16 -16 -16 -16 -16 -16 -16 -17
-14 -14 -13 -14 -14 -14 -13 -13 -13 -14 -14 -14 -14 -14 -14 -14 -14 -14 -15 -15 -16 -16 -16 -16 -16 -16 -16 -16 -16 -17 -17 -17
-14 -14 -14 -14 -14 -13 -14 -14 -14 -13 -14 -14 -14 -13 -14 -14 -14 -14 -14 -15 -16 -16 -16 -16 -16 -16 -16 -17 -17 -17 -17 -17
-15 -15 -14 -14 -14 -14 -14 -14 -13 -13 -13 -13 -13 -14 -14 -14 -14 -14 -15 -15 -16 -16 -16 -16 -17 -17 -17 -17 -17 -17 -17 -17
-14 -14 -14 -15 -14 -14 -13 -13 -13 -13 -13 -13 -13 -13 -14 -14 -14 -15 -15 -15 -16 -16 -16 -17 -17 -17 -17 -17 -17 -18 -17 -17
-15 -15 -15 -14 -14 -14 -14 -13 -13 -13 -13 -13 -13 -14 -14 -14 -15 -15 -15 -15 -16 -16 -16 -17 -17 -17 -17 -17 -17 -17 -17 -17
-15 -16 -15 -15 -15 -14 -14 -14 -13 -13 -13 -14 -13 -14 -14 -14 -15 -15 -15 -15 -16 -16 -17 -17 -17 -17 -17 -18 -18 -17 -17 -18
-16 -16 -16 -16 -16 -15 -14 -14 -14 -14 -14 -14 -14 -14 -14 -15 -15 -15 -16 -16 -16 -17 -17 -17 -17 -17 -17 -17 -17 -17 -17 -18
-16 -16 -16 -16 -16 -15 -15 -15 -14 -14 -14 -14 -15 -15 -15 -15 -16 -16 -16 -16 -16 -16 -17 -17 -17 -17 -17 -17 -17 -17 -17 -17
-17 -17 -17 -16 -16 -15 -15 -15 -15 -15 -15 -15 -15 -15 -16 -16 -16 -16 -16 -16 -16 -16 -16 -16 -17 -17 -17 -17 -17 -17 -17 -17
Height
5791 5792 5793 5796 5799 5805 5808 5810 5810 5812 5813 5814 5815 5816 5817 5818 5819 5820 5819 5820 5819 5818 5818 5819 5819 5820 5818 5816 5816 5816 5816 5814
5788 5789 5790 5792 5795 5800 5803 5805 5806 5807 5808 5809 5810 5812 5812 5813 5814 5815 5814 5815 5815 5813 5812 5813 5813 5811 5810 5809 5808 5809 5806 5807
5781 5783 5787 5789 5792 5796 5800 5801 5802 5802 5804 5804 5806 5808 5808 5808 5809 5809 5809 5810 5809 5808 5807 5807 5807 5805 5805 5803 5802 5802 5799 5798
5777 5779 5781 5784 5787 5792 5794 5795 5797 5798 5799 5800 5801 5803 5803 5803 5804 5803 5805 5805 5804 5803 5802 5802 5802 5801 5800 5799 5798 5796 5795 5795
5770 5773 5776 5779 5783 5787 5790 5791 5793 5793 5794 5795 5797 5799 5798 5799 5801 5801 5801 5802 5800 5800 5799 5798 5798 5797 5796 5796 5795 5793 5793 5791
5765 5768 5770 5773 5777 5782 5784 5786 5789 5790 5791 5792 5794 5795 5795 5796 5798 5797 5799 5798 5797 5796 5796 5795 5795 5794 5792 5792 5791 5790 5790 5789
5757 5760 5765 5768 5774 5778 5780 5783 5785 5786 5787 5790 5790 5792 5792 5793 5795 5793 5796 5795 5792 5792 5792 5792 5791 5791 5790 5789 5788 5788 5788 5786
5751 5756 5763 5768 5771 5773 5776 5778 5781 5783 5785 5786 5786 5788 5789 5789 5791 5790 5792 5791 5789 5789 5788 5788 5788 5788 5787 5786 5786 5786 5785 5783
5746 5753 5759 5762 5765 5768 5770 5774 5777 5779 5781 5781 5782 5783 5784 5784 5786 5786 5787 5788 5787 5785 5785 5785 5785 5784 5784 5783 5783 5782 5781 5780
5743 5749 5753 5758 5761 5763 5765 5768 5772 5774 5775 5776 5777 5778 5779 5780 5781 5781 5782 5783 5782 5782 5781 5781 5781 5782 5781 5780 5779 5779 5778 5777
5738 5743 5748 5752 5755 5756 5760 5763 5767 5769 5769 5771 5773 5774 5774 5775 5775 5776 5778 5778 5777 5777 5777 5777 5777 5777 5777 5777 5776 5775 5775 5774
5733 5738 5743 5745 5748 5752 5756 5758 5761 5764 5765 5766 5767 5768 5769 5770 5770 5771 5773 5773 5772 5772 5773 5773 5773 5773 5773 5772 5772 5772 5772 5771
5728 5733 5736 5740 5744 5747 5749 5752 5755 5757 5759 5761 5762 5764 5765 5766 5765 5766 5768 5768 5767 5768 5768 5769 5769 5769 5768 5768 5769 5768 5768 5767
5721 5726 5729 5734 5738 5740 5742 5745 5748 5751 5753 5756 5758 5759 5760 5761 5760 5761 5763 5763 5762 5762 5764 5764 5764 5764 5764 5764 5765 5765 5764 5764
5716 5719 5723 5727 5730 5733 5736 5739 5742 5745 5748 5751 5753 5753 5754 5755 5756 5755 5758 5757 5757 5756 5758 5759 5760 5760 5760 5760 5760 5760 5760 5760
5710 5714 5718 5721 5724 5727 5730 5733 5736 5739 5742 5746 5748 5747 5749 5750 5750 5750 5752 5752 5752 5753 5754 5756 5756 5756 5754 5755 5756 5756 5756 5756
5705 5709 5712 5716 5718 5721 5724 5727 5730 5733 5736 5739 5740 5741 5743 5745 5745 5746 5746 5747 5748 5749 5750 5752 5752 5752 5751 5752 5753 5753 5753 5752
5699 5704 5709 5712 5713 5715 5717 5720 5724 5727 5729 5732 5733 5736 5738 5739 5739 5741 5742 5743 5744 5746 5747 5747 5748 5749 5749 5749 5749 5749 5748 5748
5689 5696 5702 5705 5707 5709 5711 5714 5718 5722 5723 5725 5727 5729 5731 5732 5734 5736 5737 5739 5740 5741 5743 5743 5744 5744 5745 5745 5745 5744 5744 5744
Wind_Speed
15 16 18 22 22 22 21 23 22 23 22 23 23 24 25 26 28 27 21 25 23 25 28 32 33 34 41 46 43 46 46 47
21 20 22 21 19 20 23 23 23 23 23 21 19 22 24 23 24 25 27 28 25 25 28 31 37 41 46 52 51 44 47 50
26 23 24 25 22 23 24 25 24 22 20 18 20 22 21 17 24 22 14 14 15 17 20 23 22 27 26 28 28 31 25 26
25 29 26 29 25 23 26 25 22 20 19 18 16 15 17 18 19 19 18 18 18 21 23 23 22 27 26 23 22 18 18 21
28 26 25 28 24 24 22 19 19 17 15 12 12 12 13 15 16 15 15 17 17 18 20 21 19 20 19 18 18 19 19 18
30 29 29 26 22 23 21 20 18 16 14 12 12 11 10 11 15 16 18 17 15 15 15 16 18 19 20 21 17 15 15 15
32 29 28 25 25 22 20 20 19 15 15 14 14 13 13 14 18 17 21 22 20 20 22 22 22 22 19 16 14 13 13 13
31 27 21 22 21 20 19 20 19 18 19 17 16 18 18 18 21 19 22 21 17 19 20 22 22 21 18 17 15 14 14 14
28 27 26 26 25 22 22 22 21 22 22 19 18 21 20 19 20 19 20 22 20 19 18 18 19 20 20 19 17 16 15 17
27 26 27 23 18 19 22 22 21 22 21 19 19 20 18 18 18 18 18 21 21 17 16 16 18 20 21 19 18 17 17 18
29 29 25 24 20 20 22 21 21 21 21 18 19 21 18 18 17 17 17 21 17 15 16 17 18 19 19 18 17 17 18 17
33 32 27 26 26 22 15 18 22 22 23 22 20 22 19 19 17 16 18 18 15 15 17 18 18 19 19 18 18 17 18 16
35 34 31 25 24 25 22 23 24 26 25 22 22 22 20 21 18 16 17 17 16 16 18 18 18 19 20 19 19 17 15 16
36 35 33 30 30 30 26 27 28 28 27 23 24 24 22 22 18 15 17 17 17 19 21 20 20 19 18 17 17 16 16 15
29 30 30 29 29 29 28 29 28 29 27 26 27 25 24 23 17 15 17 19 20 18 18 17 17 18 19 19 16 16 16 15
30 29 30 31 32 32 30 29 29 28 28 29 28 26 25 23 19 16 17 18 15 14 14 16 17 19 16 14 15 15 16 15
22 28 30 29 31 31 32 32 30 31 31 29 27 27 25 23 20 17 17 15 12 13 14 15 16 13 10 13 15 17 17 16
28 30 31 30 30 30 29 31 30 28 31 29 27 26 25 22 20 17 18 16 15 16 16 16 17 18 15 16 18 18 18 18
36 33 33 35 30 29 27 27 26 28 29 28 25 25 23 22 20 20 20 19 17 18 20 20 20 20 19 19 19 20 20 19
Wind_Direction
274 211 207 214 219 235 249 253 254 255 258 259 263 265 267 271 274 275 269 275 275 272 267 261 264 266 265 269 275 275 280 284
250 222 219 222 232 247 256 256 253 257 261 260 263 261 260 263 264 266 265 269 267 266 268 266 263 265 271 275 270 274 276 286
243 236 230 228 230 239 251 256 255 257 258 258 260 255 256 260 258 253 246 253 263 268 273 278 297 307 303 298 293 288 300 304
233 226 240 224 227 234 243 247 248 249 252 257 255 257 251 242 235 236 248 254 260 277 286 286 288 292 303 301 296 307 309 306
239 226 211 213 220 231 231 231 235 234 241 239 243 243 244 245 253 261 272 275 276 282 287 290 286 287 301 303 304 312 313 313
234 232 224 214 215 218 220 223 224 231 239 229 225 231 236 250 260 264 266 266 275 285 289 292 298 301 304 304 312 316 310 314
226 219 206 208 210 215 219 223 226 230 234 228 226 241 249 258 265 266 268 265 270 278 283 290 297 299 304 309 311 306 309 310
217 213 209 212 212 215 219 227 231 236 238 237 238 247 254 262 269 271 272 271 275 278 283 289 291 298 304 307 305 305 311 310
211 209 211 217 213 210 215 225 233 239 241 243 247 256 263 270 277 276 267 265 272 277 279 283 291 294 293 294 296 298 303 304
202 211 217 211 211 212 217 223 229 235 242 247 253 261 267 272 273 274 271 271 277 278 279 279 281 284 284 285 289 291 293 300
208 220 218 212 214 215 219 223 228 232 244 253 259 264 271 273 276 280 279 276 272 275 278 279 280 279 279 279 283 286 289 298
212 218 225 225 215 208 221 234 232 232 239 248 256 264 270 271 274 282 283 276 274 273 274 275 275 276 276 279 283 281 289 292
210 218 227 226 219 221 248 248 238 239 242 247 255 262 266 269 273 281 276 274 273 274 272 272 273 272 272 278 276 274 284 287
216 219 232 234 226 238 246 245 237 237 243 247 251 258 262 267 272 274 273 274 276 276 275 274 272 271 270 274 269 277 276 280
218 224 229 231 232 235 238 239 241 241 246 248 249 254 261 266 267 265 270 276 275 273 272 268 267 271 273 273 265 267 272 275
213 218 228 232 233 236 238 240 241 242 247 247 249 256 262 265 260 264 271 272 270 263 260 262 270 283 274 256 257 267 272 275
226 228 228 234 239 241 240 239 235 237 243 247 252 256 259 263 260 263 263 258 246 251 258 264 272 276 258 254 264 274 273 274
227 229 236 238 238 244 247 239 237 239 244 247 252 257 259 259 260 258 247 240 245 254 261 265 272 272 267 268 273 273 276 277
220 231 225 228 232 236 239 243 244 242 247 255 257 255 254 255 255 251 239 240 250 257 259 265 270 271 264 269 274 274 276 277